Grosse Ile, MI

8:10 AM EDT on August 17, 2017 (GMT -0400)
Grosse Ile Municipal

Weather History for KONZ - December, 2012

Change the Weather History Date:

Tuesday, December 4, 2012

  Actual Average (KDTW) Record (KDTW)
Temperature  
Mean Temperature 50 °F -  
Max Temperature 59 °F 38 °F 64 °F (1941)
Min Temperature 41 °F 25 °F 3 °F (2002)
Degree Days  
Heating Degree Days 15    
Moisture  
Dew Point 46 °F    
Average Humidity 81    
Maximum Humidity 88    
Minimum Humidity 70    
Precipitation  
Precipitation 0.08 in - - ()
Sea Level Pressure  
Sea Level Pressure 29.98 in    
Wind  
Wind Speed 11 mph (WSW)    
Max Wind Speed 16 mph    
Max Gust Speed 22 mph    
Visibility 10 miles    
Events Rain    
Averages and records for this station are not official NWS values.
T = Trace of Precipitation, MM = Missing Value Source: NWS Daily Summary

Daily Weather History Graph

Daily Weather History Graph

Search for Another Location

Airport or City:

Trip Planner

Search our weather history database for the weather conditions in past years. The results will help you decide how hot, cold, wet, or windy it might be!

Date:

Astronomy

Dec. 04, 2012 Rise Set
Actual Time 7:44 AM EST 5:01 PM EST
Civil Twilight 7:13 AM EST 5:32 PM EST
Nautical Twilight 6:38 AM EST 6:07 PM EST
Astronomical Twilight 6:04 AM EST 6:41 PM EST
Moon 10:51 PM EST (12/4) 11:35 AM EST (12/4)
Length of Visible Light 10h 18m
Length of Day
9h 16m
Waning Gibbous, 69% of the Moon is Illuminated
Dec 4
Waning Gibbous
Dec 6
Last Quarter
Dec 13
New
Dec 20
First Quarter
Dec 28
Full

Hourly Weather History & Observations

Time (EST) Temp. Windchill Dew Point Humidity Pressure Visibility Wind Dir Wind Speed Gust Speed Precip Events Conditions
12:14 AM 51.8 °F - 48.2 °F 88% 29.94 in 10.0 mi South 13.8 mph - N/A   Scattered Clouds
12:34 AM 51.8 °F - 48.2 °F 88% 29.94 in 10.0 mi South 13.8 mph - N/A   Clear
1:14 AM 57.2 °F - 53.6 °F 88% 29.94 in 10.0 mi SSW 15.0 mph 21.9 mph N/A   Scattered Clouds
1:34 AM 57.2 °F - 53.6 °F 88% 29.93 in 10.0 mi SSW 15.0 mph - N/A   Clear
1:54 AM 59.0 °F - 53.6 °F 82% 29.93 in 10.0 mi SSW 13.8 mph 19.6 mph N/A   Clear
2:14 AM 59.0 °F - 53.6 °F 82% 29.93 in 10.0 mi SSW 13.8 mph 20.7 mph N/A   Scattered Clouds
2:35 AM 59.0 °F - 53.6 °F 82% 29.93 in 10.0 mi SSW 15.0 mph 19.6 mph N/A   Clear
2:54 AM 59.0 °F - 51.8 °F 77% 29.93 in 10.0 mi SSW 16.1 mph 20.7 mph N/A   Scattered Clouds
3:14 AM 57.2 °F - 51.8 °F 82% 29.93 in 10.0 mi SSW 12.7 mph - N/A   Scattered Clouds
3:54 AM 57.2 °F - 51.8 °F 82% 29.93 in 10.0 mi SSW 12.7 mph 18.4 mph N/A   Clear
4:14 AM 57.2 °F - 51.8 °F 82% 29.92 in 10.0 mi SSW 12.7 mph - N/A   Scattered Clouds
4:35 AM 59.0 °F - 51.8 °F 77% 29.92 in 10.0 mi SSW 13.8 mph - N/A   Mostly Cloudy
4:54 AM 59.0 °F - 51.8 °F 77% 29.92 in 10.0 mi SSW 11.5 mph - N/A   Overcast
5:14 AM 57.2 °F - 51.8 °F 82% 29.93 in 10.0 mi SSW 10.4 mph - N/A   Overcast
5:35 AM 57.2 °F - 51.8 °F 82% 29.92 in 10.0 mi SSW 10.4 mph - N/A   Mostly Cloudy
5:54 AM 57.2 °F - 51.8 °F 82% 29.92 in 10.0 mi SSW 11.5 mph - N/A   Mostly Cloudy
6:14 AM 57.2 °F - 51.8 °F 82% 29.92 in 10.0 mi SSW 12.7 mph - N/A   Scattered Clouds
6:34 AM 59.0 °F - 51.8 °F 77% 29.92 in 10.0 mi SSW 12.7 mph - N/A   Mostly Cloudy
6:54 AM 59.0 °F - 51.8 °F 77% 29.93 in 10.0 mi SSW 13.8 mph - N/A   Overcast
7:14 AM 59.0 °F - 51.8 °F 77% 29.93 in 10.0 mi SSW 13.8 mph - N/A   Overcast
7:34 AM 59.0 °F - 51.8 °F 77% 29.93 in 10.0 mi SSW 12.7 mph - N/A   Overcast
7:54 AM 59.0 °F - 51.8 °F 77% 29.93 in 10.0 mi SSW 10.4 mph 17.3 mph N/A   Overcast
8:15 AM 59.0 °F - 51.8 °F 77% 29.93 in 10.0 mi SSW 10.4 mph - N/A   Overcast
8:34 AM 53.6 °F - 48.2 °F 82% 29.94 in 10.0 mi South 10.4 mph - N/A   Overcast
8:54 AM 53.6 °F - 48.2 °F 82% 29.94 in 10.0 mi SW 6.9 mph - N/A Rain Rain
9:15 AM 59.0 °F - 53.6 °F 82% 29.94 in 10.0 mi WSW 9.2 mph 17.3 mph N/A Rain Light Rain
9:34 AM 59.0 °F - 53.6 °F 82% 29.96 in 10.0 mi West 11.5 mph 19.6 mph N/A   Light Drizzle
9:54 AM 57.2 °F - 53.6 °F 88% 29.97 in 10.0 mi NW 12.7 mph - N/A Rain Rain
10:14 AM 53.6 °F - 50.0 °F 88% 29.98 in 5.0 mi NW 12.7 mph 21.9 mph 0.02 in Rain Rain
10:34 AM 51.8 °F - 48.2 °F 88% 29.98 in 7.0 mi NNW 10.4 mph - 0.05 in Rain Rain
10:55 AM 51.8 °F - 48.2 °F 88% 29.98 in 7.0 mi NNW 8.1 mph - 0.06 in Rain Light Rain
11:14 AM 51.8 °F - 46.4 °F 82% 29.98 in 10.0 mi NW 8.1 mph - N/A Rain Light Rain
11:34 AM 51.8 °F - 46.4 °F 82% 30.00 in 10.0 mi WNW 6.9 mph - N/A Rain Light Rain
11:55 AM 51.8 °F - 46.4 °F 82% 29.99 in 10.0 mi WNW 4.6 mph - 0.01 in Rain Light Rain
12:14 PM 51.8 °F - 48.2 °F 88% 29.98 in 7.0 mi WNW 3.5 mph - N/A Rain Light Rain
12:34 PM 51.8 °F - 46.4 °F 82% 29.97 in 10.0 mi Calm Calm - N/A Rain Light Rain
1:14 PM 50.0 °F - 46.4 °F 87% 29.97 in 10.0 mi West 6.9 mph - N/A Rain Light Rain
1:34 PM 48.2 °F - 42.8 °F 82% 29.97 in 10.0 mi West 4.6 mph - N/A Rain Light Rain
1:54 PM 48.2 °F - 42.8 °F 82% 29.97 in 10.0 mi WSW 4.6 mph - 0.01 in Rain Light Rain
2:14 PM 48.2 °F - 42.8 °F 82% 29.97 in 10.0 mi SW 4.6 mph - N/A Rain Light Rain
2:35 PM 48.2 °F - 42.8 °F 82% 29.97 in 10.0 mi SW 4.6 mph - N/A Rain Rain
2:54 PM 48.2 °F - 42.8 °F 82% 29.99 in 10.0 mi WSW 6.9 mph - N/A Rain Light Rain
3:14 PM 48.2 °F - 42.8 °F 82% 29.98 in 10.0 mi West 5.8 mph - N/A   Overcast
3:35 PM 48.2 °F - 42.8 °F 82% 29.99 in 10.0 mi WSW 5.8 mph - N/A   Mostly Cloudy
3:54 PM 48.2 °F - 42.8 °F 82% 29.99 in 10.0 mi WSW 3.5 mph - N/A   Mostly Cloudy
4:14 PM 48.2 °F - 42.8 °F 82% 30.00 in 10.0 mi WSW 5.8 mph - N/A   Overcast
4:35 PM 48.2 °F - 42.8 °F 82% 30.00 in 10.0 mi WSW 5.8 mph - N/A   Mostly Cloudy
4:54 PM 48.2 °F - 42.8 °F 82% 30.01 in 10.0 mi WSW 5.8 mph - N/A   Scattered Clouds
5:14 PM 48.2 °F - 42.8 °F 82% 30.01 in 10.0 mi WSW 4.6 mph - N/A   Mostly Cloudy
5:54 PM 46.4 °F 43.5 °F 42.8 °F 87% 30.02 in 10.0 mi West 5.8 mph - N/A   Clear
6:14 PM 46.4 °F 43.5 °F 42.8 °F 87% 30.03 in 10.0 mi WSW 5.8 mph - N/A   Clear
6:34 PM 46.4 °F 43.5 °F 42.8 °F 87% 30.02 in 10.0 mi WSW 5.8 mph - N/A   Clear
6:54 PM 46.4 °F 42.9 °F 42.8 °F 87% 30.03 in 10.0 mi WSW 6.9 mph - N/A   Clear
7:14 PM 46.4 °F 42.9 °F 41.0 °F 81% 30.04 in 10.0 mi WSW 6.9 mph - N/A   Clear
7:34 PM 46.4 °F 42.9 °F 39.2 °F 76% 30.04 in 10.0 mi West 6.9 mph - N/A   Clear
7:54 PM 46.4 °F 42.9 °F 39.2 °F 76% 30.05 in 10.0 mi West 6.9 mph - N/A   Clear
8:14 PM 44.6 °F 40.7 °F 39.2 °F 81% 30.05 in 10.0 mi WSW 6.9 mph - N/A   Clear
8:34 PM 44.6 °F 41.4 °F 37.4 °F 76% 30.05 in 10.0 mi WSW 5.8 mph - N/A   Clear
8:54 PM 44.6 °F 41.4 °F 37.4 °F 76% 30.05 in 10.0 mi WSW 5.8 mph - N/A   Clear
9:14 PM 44.6 °F 40.7 °F 37.4 °F 76% 30.06 in 10.0 mi West 6.9 mph - N/A   Clear
9:34 PM 44.6 °F 40.7 °F 35.6 °F 71% 30.06 in 10.0 mi WSW 6.9 mph - N/A   Clear
9:54 PM 44.6 °F 40.2 °F 35.6 °F 71% 30.07 in 10.0 mi West 8.1 mph - N/A   Clear
10:14 PM 44.6 °F 42.2 °F 35.6 °F 71% 30.07 in 10.0 mi WSW 4.6 mph - N/A   Clear
10:34 PM 42.8 °F 38.0 °F 35.6 °F 76% 30.07 in 10.0 mi West 8.1 mph - N/A   Clear
10:54 PM 42.8 °F 39.3 °F 33.8 °F 70% 30.08 in 10.0 mi West 5.8 mph - N/A   Clear
11:14 PM 42.8 °F 40.1 °F 33.8 °F 70% 30.09 in 10.0 mi West 4.6 mph - N/A   Clear
11:35 PM 41.0 °F 38.0 °F 33.8 °F 76% 30.09 in 10.0 mi West 4.6 mph - N/A   Clear
11:54 PM 41.0 °F 35.8 °F 33.8 °F 76% 30.10 in 10.0 mi West 8.1 mph - N/A   Clear